Location: Acheville
(50.3840°N, 2.8827°E)
Time: 19:25:39
(UTC+00:00)

Cosmos 2322 Rocket - Pass Details

Date: 24 October 2021
Orbit: 832 x 852 km, 71.0° (Epoch: 07 December)

Event Time Altitude Azimuth Distance (km) Brightness Sun altitude
Rises 18:03:40 0° 194° (SSW) 3,363 5.5 -14.2°
Reaches altitude 10° 18:06:07 10° 190° (S) 2,434 4.7 -14.5°
Maximum altitude 18:11:34 59° 113° (ESE) 964 2.2 -15.4°
Drops below altitude 10° 18:17:05 10° 35° (NE) 2,457 4.3 -16.3°
Enters shadow 18:18:12 - 33° (NNE) 2,877 4.7 -16.5°
